Regional Weather Roundup
Issued by NWS Cleveland, OH

Home | Current Version | Previous Version | Text Only | Print | Product List | Glossary Off
Versions: 1 2 3 4 5 6 7 8 9 10 11 12 13 14 15 16 17 18 19 20 21 22 23 24 25 26 27 28 29 30 31 32 33 34 35 36 37 38 39 40 41 42 43 44 45 46 47 48 49 50

000
ASUS41 KCLE 300300
RWRCLE
OHIO REGIONAL WEATHER ROUNDUP
NATIONAL WEATHER SERVICE WILMINGTON, OH
1000 PM EST THU JAN 29 2015

NOTE: "FAIR" INDICATES FEW OR NO CLOUDS BELOW 12,000 FEET WITH NO
SIGNIFICANT WEATHER AND/OR OBSTRUCTIONS TO VISIBILITY.

OHZ001>008-015>018-024>027-034-035-043-044-300400-
   NORTHWEST OHIO

CITY           SKY/WX    TMP DP  RH WIND       PRES   REMARKS
DEFIANCE       CLOUDY    33  26  75 NW15      30.09R WCI  23
FINDLAY        CLOUDY    33  29  85 NW16G22   30.05R WCI  23
TOLEDO EXPRESS CLOUDY    32  26  78 NW12G22   30.05R WCI  23
TOLEDO EXEC    MIX PCPN  33  28  81 W13       30.05R WCI  24
LIMA           CLOUDY    34  28  79 NW21      30.07R WCI  22
$$

OHZ009>014-019>023-028>033-038-089-300400-
   NORTHEAST OHIO

CITY           SKY/WX    TMP DP  RH WIND       PRES   REMARKS
CLE-HOPKINS    FLURRIES  31  28  89 W13       30.01R WCI  21
CLE-LAKEFRONT  CLOUDY    32  29  88 W16       29.97R WCI  21
CUY CO. ARPT     N/A     32  30  93 W14       29.96R FOG     WCI  22
LORAIN-ELYRIA  CLOUDY    31  28  89 NW13      30.00R WCI  21
ASHTABULA      FLURRIES  29  25  85 NW16G23   29.92R WCI  17
AKRON-CANTON   LGT SNOW  31  27  85 NW14G23   29.95R FOG     WCI  21
WOOSTER        NOT AVBL
MANSFIELD      LGT SNOW  31  28  89 NW17G23   29.99R FOG     WCI  19
YOUNGSTOWN     FLURRIES  30  27  88 W10G20    29.91R WCI  21
$$

OHZ042-051>053-060>062-070>072-077>081-300400-
  SOUTHWEST OHIO

CITY           SKY/WX    TMP DP  RH WIND       PRES   REMARKS
CINC-COVINGTON CLOUDY    34  29  82 NW15G21   30.16R WCI  24
CINC-LUNKEN    CLOUDY    35  29  78 W9        30.18R WCI  28
HAMILTON       CLOUDY    35  30  82 W14G24    30.17R WCI  26
DAYTON         NOT AVBL
WRIGHT-PAT AFB NOT AVBL
DAYTON GENERAL CLOUDY    33  29  85 NW14G20   30.11R WCI  23
WILMINGTON     LGT SNOW  32  28  85 W13       30.10R FOG     WCI  22
$$

OHZ036-037-039>041-045>050-054>059-063>069-073>076-082>088-300400-
  CENTRAL AND SOUTHEAST OHIO

CITY           SKY/WX    TMP DP  RH WIND       PRES   REMARKS
COLUMBUS       LGT SNOW  32  30  92 W13       30.05R FOG     WCI  22
OSU AIRPORT    LGT SNOW  32  29  88 NW15G23   30.05R FOG     WCI  22
BOLTON FIELD   NOT AVBL
RICKENBACK AFB NOT AVBL
NEWARK         LGT SNOW  34  30  85 NW14      30.02R FOG     WCI  25
MARION         CLOUDY    32  29  88 NW13G23   30.04R FOG     WCI  22
LANCASTER      LGT SNOW  34  31  88 W12       30.05R FOG     WCI  25
ZANESVILLE     LGT SNOW  32  30  92 W9        30.00S FOG     WCI  24
NEW PHILLY     LGT SNOW  33  29  85 W6        29.99R FOG     WCI  28
$$



USA.gov is the U.S. government's official web portal to all federal, state and local government web resources and services.